Theta_e
286 286 286 285 286 286 286 286 286 286 286 286 287 287 287 287 287 287 287 286 286 286 286 286 286 285 285 285 285 286 286 287 288 289 290 292 293 293 293 294 294 294
285 285 286 286 286 286 286 287 287 287 287 287 287 287 287 287 287 287 287 287 287 287 287 287 287 287 287 286 286 286 285 285 285 286 286 288 289 290 291 292 293 293
286 286 286 286 286 287 287 287 287 287 287 287 287 287 287 287 287 287 287 287 287 287 288 288 288 288 288 288 287 287 287 287 287 286 286 285 285 286 287 288 290 291
286 286 286 287 287 287 287 287 287 287 287 287 286 287 287 287 287 287 287 287 287 287 287 287 287 288 288 288 288 288 288 288 287 287 287 287 286 286 285 286 286 287
286 287 287 287 287 287 287 288 287 287 287 287 287 287 287 287 287 287 287 287 287 287 287 287 287 287 287 287 287 287 287 288 287 287 287 287 287 287 286 286 286 285
287 287 287 287 287 287 287 287 287 287 287 287 287 287 287 287 287 287 287 287 287 287 286 286 286 286 285 285 285 285 285 286 286 286 286 286 287 287 287 287 286 286
287 287 287 287 287 287 286 286 286 286 286 286 286 286 286 286 286 286 286 286 286 286 285 285 285 285 284 283 283 283 283 283 283 284 284 284 285 285 286 286 286 286
287 287 286 286 286 286 286 286 285 285 285 286 286 286 286 285 285 285 285 285 284 284 284 284 283 283 283 282 282 282 282 282 282 282 282 282 282 283 283 284 284 285
286 286 286 286 286 286 286 286 285 286 286 286 286 286 286 285 284 284 283 283 282 282 282 282 282 282 281 281 281 281 281 281 281 281 281 281 281 281 282 282 282 283
286 286 286 286 285 285 285 285 284 284 284 285 285 285 285 284 283 282 281 281 280 280 280 280 280 280 280 280 280 280 280 280 280 280 280 280 280 281 281 281 282 282
285 285 285 285 284 284 283 283 283 283 282 282 282 282 282 281 281 280 280 279 279 279 279 279 279 279 279 279 279 279 279 279 279 279 279 280 280 280 280 281 281 281
285 284 284 284 283 283 282 282 282 282 282 282 282 281 280 280 279 278 278 277 277 277 277 277 278 278 278 278 278 278 278 278 279 279 279 279 280 280 280 281 281 281
284 284 283 283 283 282 282 282 282 282 282 282 282 281 280 279 278 278 277 277 276 277 276 276 277 277 277 277 277 277 278 278 278 279 279 280 280 280 280 280 281 281
284 283 283 283 282 282 282 282 282 282 281 281 280 279 278 278 277 277 277 277 276 276 276 275 275 275 275 276 276 277 277 278 278 279 279 279 279 280 280 280 280 280
284 283 283 282 282 282 281 281 281 280 280 279 279 278 277 277 276 276 276 276 276 275 275 274 274 274 274 274 275 276 277 278 278 278 278 279 279 279 279 279 280 280
282 282 282 282 281 281 280 280 280 279 279 279 278 278 277 277 276 275 275 274 274 274 274 273 272 272 272 273 274 275 276 276 277 277 277 277 278 278 278 278 279 279
282 282 281 281 280 280 279 279 279 279 278 278 278 278 277 277 276 275 274 273 273 272 272 271 270 270 270 272 273 274 274 275 275 275 276 276 276 277 277 277 278 278
281 280 280 279 279 278 278 278 277 277 277 277 277 277 276 276 275 274 273 272 271 270 270 269 268 268 269 270 271 272 273 273 273 274 274 274 275 275 276 276 276 276
279 278 278 277 277 277 277 276 276 276 276 276 275 275 274 274 273 272 271 269 269 268 268 267 267 267 268 269 270 271 271 272 272 273 273 273 274 274 274 274 275 275
278 277 276 276 276 276 275 275 275 275 274 274 273 272 272 271 270 269 268 267 267 267 267 267 266 266 267 267 269 270 270 271 272 271 271 272 272 272 272 272 272 272
276 276 276 275 275 275 274 274 274 273 273 272 271 270 269 268 268 267 266 266 266 266 266 265 265 265 266 266 268 269 270 271 270 270 270 270 270 270 270 270 270 271
275 275 275 274 274 273 273 273 272 272 271 270 269 268 268 267 266 265 265 265 265 265 264 264 264 265 265 266 267 268 269 269 269 269 269 269 269 269 270 270 270 270
274 274 273 273 273 272 272 272 271 271 270 269 268 267 266 265 265 264 264 264 264 263 263 263 263 264 264 265 266 267 268 268 268 268 268 269 269 269 269 269 270 270
273 272 272 272 272 271 271 270 270 269 268 267 266 265 265 264 264 263 264 263 263 263 262 262 262 263 264 264 265 267 267 268 268 268 268 268 268 269 269 269 269 269
271 271 271 271 271 270 270 269 269 268 267 266 265 264 263 263 263 263 263 262 262 262 262 262 262 263 263 264 265 266 267 268 268 268 268 268 268 268 268 268 269 269
270 270 270 270 270 269 268 268 267 267 265 264 264 263 263 262 262 262 262 262 262 262 262 262 262 263 263 264 264 266 267 268 268 268 268 268 268 268 268 269 269 269
Wind_Speed
24 24 25 25 25 25 25 25 26 26 26 26 26 26 25 25 25 26 26 26 26 27 27 28 28 29 28 28 28 27 26 25 24 23 21 20 19 19 19 19 19 20
22 22 22 22 23 23 23 23 23 23 23 23 23 23 24 24 24 25 25 25 25 25 25 26 26 27 28 28 28 28 28 27 27 26 26 24 23 22 21 21 20 20
20 20 20 21 21 21 21 21 21 22 22 22 23 24 24 25 25 26 26 26 25 25 25 25 25 26 26 27 27 28 28 28 28 28 27 26 26 25 24 23 22 21
17 18 18 18 18 19 19 19 20 21 22 23 24 25 26 27 27 28 28 28 27 27 27 26 26 26 26 27 27 27 27 28 28 29 28 27 26 26 26 26 25 24
14 15 15 15 15 15 16 17 18 20 20 22 23 25 27 28 29 29 30 29 29 29 29 29 29 28 28 28 27 27 28 28 28 28 29 29 28 27 27 27 27 26
10 11 11 11 11 12 14 15 16 18 19 21 23 25 27 29 30 30 30 30 30 30 31 31 31 31 30 30 30 29 28 28 28 28 28 28 28 28 28 28 28 28
7 7 8 9 10 11 13 14 16 18 20 22 24 25 27 29 30 30 30 30 30 31 31 32 32 33 33 33 32 32 30 29 29 28 28 28 27 27 27 27 29 30
6 7 8 10 11 12 14 15 17 19 21 23 25 27 28 29 30 31 31 30 30 31 32 32 33 34 34 34 34 33 33 31 30 29 28 28 27 27 27 26 28 29
6 7 8 10 12 13 14 16 17 19 21 23 25 27 28 29 30 30 30 31 31 32 32 33 34 35 35 35 34 33 33 33 32 30 29 29 28 29 29 28 27 29
6 6 7 10 11 12 14 15 16 18 19 21 23 25 27 28 29 29 29 30 30 31 32 32 33 34 34 34 33 32 32 33 33 32 31 30 30 31 31 30 29 30
5 5 6 8 9 11 13 14 15 17 18 20 22 24 26 27 28 28 28 29 30 30 30 31 31 31 31 32 31 31 31 31 31 31 32 32 32 32 32 31 30 31
4 5 6 7 9 11 14 15 17 19 21 23 25 27 29 29 29 29 29 29 30 29 29 30 30 30 29 29 30 30 29 30 31 31 32 32 33 33 33 32 31 32
5 6 8 10 12 14 16 18 20 22 24 26 28 30 31 31 31 32 31 31 31 31 30 30 30 29 28 27 27 27 27 29 30 31 32 33 33 34 34 34 33 33
8 10 11 13 15 17 18 20 23 25 26 28 29 30 30 31 31 32 32 32 32 31 30 30 29 29 27 25 26 26 27 28 30 31 32 33 34 35 35 35 35 35
10 12 14 15 17 19 21 23 25 26 28 29 30 30 30 31 31 31 31 32 32 32 31 30 29 27 25 24 25 27 27 28 30 31 32 34 35 36 36 36 36 36
12 14 16 18 20 21 23 25 26 28 29 30 31 31 32 32 32 32 31 32 33 34 34 32 29 27 25 24 25 26 28 29 30 32 33 34 36 37 38 38 37 36
15 17 19 20 22 23 24 26 27 29 30 31 32 32 33 33 33 33 33 33 33 34 34 33 32 30 28 27 26 26 27 29 31 33 35 35 36 36 38 39 38 38
17 18 19 20 22 23 25 26 27 28 29 31 32 33 33 33 33 33 33 33 33 34 34 32 33 33 30 27 27 27 27 28 31 34 36 36 37 36 37 37 37 37
17 18 19 21 22 23 24 25 27 28 28 30 31 31 32 32 32 32 32 32 32 33 34 33 34 34 30 26 27 27 27 28 30 32 33 34 34 33 33 33 34 35
17 19 20 21 22 23 24 25 26 27 27 28 29 30 31 31 31 31 31 31 31 32 34 35 35 34 30 27 27 27 27 28 29 29 29 29 30 30 31 32 33 34
18 19 21 22 22 23 24 25 26 26 27 27 28 29 29 29 30 30 31 31 31 32 34 35 34 33 30 29 28 28 28 28 27 27 28 28 28 29 30 32 32 32
18 20 21 22 22 23 24 25 26 26 27 27 28 28 28 28 28 29 30 32 32 32 33 34 34 32 30 29 28 29 29 28 27 26 26 27 27 26 27 27 27 27
17 19 20 21 22 23 24 25 25 26 26 26 27 28 28 28 29 29 30 31 32 31 31 34 35 33 30 29 29 29 29 28 27 26 25 26 26 25 25 25 24 24
16 17 19 20 21 22 24 24 24 25 25 25 26 28 28 28 29 30 30 30 31 31 30 32 34 33 30 29 29 29 28 28 28 27 27 27 26 25 24 24 24 25
15 17 18 19 21 21 22 23 23 24 24 24 24 26 28 28 29 30 31 31 30 31 30 30 33 34 31 29 29 28 28 29 29 29 28 28 27 26 26 27 29 30
15 16 17 18 20 21 21 21 22 23 23 24 25 25 27 28 29 29 31 31 30 30 30 30 32 34 32 30 29 29 28 29 30 29 29 29 29 29 30 32 32 30
Wind_Direction
65 63 62 60 58 55 52 49 46 44 43 40 38 36 33 30 26 24 22 20 19 17 15 13 11 10 10 11 11 11 11 9 6 2 355 348 342 337 334 330 327 323
63 61 60 58 55 52 49 46 43 41 39 36 34 30 27 25 22 20 18 16 14 12 10 8 6 4 3 3 4 3 3 3 2 2 359 356 352 346 341 335 330 327
58 56 53 51 48 46 43 40 38 36 33 29 26 22 19 15 13 11 9 8 7 5 4 2 0 359 358 357 357 356 356 355 355 354 353 353 352 350 347 343 337 332
54 50 48 45 42 38 34 31 29 27 24 21 18 13 10 6 3 1 359 358 357 355 354 353 352 352 351 350 349 349 348 348 347 345 344 344 344 343 344 343 340 338
50 47 45 41 37 33 28 24 22 18 14 11 8 4 360 357 354 352 350 349 348 347 346 345 344 344 343 343 342 342 341 340 340 339 337 336 335 335 336 335 335 334
46 43 41 35 30 26 20 18 14 9 6 3 0 357 353 351 349 347 345 343 342 341 340 339 338 338 339 338 337 337 336 335 335 334 333 331 330 328 328 329 328 327
40 32 29 23 19 18 14 12 8 3 360 356 354 352 350 348 345 343 341 339 337 336 335 335 334 334 335 335 335 334 334 333 333 332 330 329 327 324 323 324 322 321
18 9 7 5 5 5 4 2 359 355 352 348 347 346 345 343 341 339 337 335 334 332 331 331 331 331 331 332 332 332 331 331 330 330 327 326 325 321 320 319 317 315
0 352 348 350 351 349 348 348 347 346 343 340 338 337 336 337 336 335 333 332 331 330 329 328 327 328 328 328 329 329 328 327 327 326 324 322 320 318 316 314 312 309
341 335 330 336 336 332 334 337 337 338 337 334 333 332 331 331 331 331 330 330 329 328 327 326 326 326 325 325 326 326 325 324 323 322 321 318 316 313 311 310 307 304
317 310 306 312 313 317 326 332 335 335 334 334 333 332 331 330 329 329 328 328 327 327 326 325 324 324 323 323 323 323 321 320 319 317 315 313 311 309 307 305 303 300
287 286 292 301 311 321 329 332 332 331 330 330 329 329 329 329 329 328 328 327 326 325 324 323 323 322 321 321 320 320 319 317 315 313 310 308 306 304 303 300 298 297
297 307 313 318 322 325 326 324 323 323 324 324 324 325 325 325 326 326 326 326 325 324 324 322 322 321 321 321 320 319 317 314 311 309 306 304 301 300 299 297 295 293
312 315 316 318 319 319 319 318 319 320 321 322 323 323 324 325 325 325 324 324 324 323 323 322 322 322 323 322 320 318 315 312 308 305 302 300 298 295 294 293 292 291
306 308 310 312 313 315 316 317 318 319 320 321 322 323 324 324 324 325 325 324 323 322 321 321 321 322 321 320 318 316 313 309 305 301 299 297 295 293 291 289 289 288
305 306 308 310 311 313 315 316 318 318 318 319 320 321 322 323 323 325 326 324 322 321 320 321 321 319 318 316 315 312 309 306 302 299 296 294 292 291 290 289 288 287
305 306 308 310 311 313 315 315 316 317 317 318 319 320 321 322 323 324 325 324 322 321 320 320 320 319 318 317 315 311 307 304 300 297 294 292 290 288 288 289 289 289
305 307 308 311 313 314 316 317 317 318 318 319 320 320 321 322 323 323 323 324 323 321 321 321 319 319 320 318 314 311 308 304 299 296 293 291 289 288 288 289 290 290
305 309 311 314 316 317 317 319 319 320 321 321 321 321 321 322 323 324 324 325 324 323 321 320 319 320 321 318 313 311 309 306 301 296 294 292 291 290 291 291 292 293
307 311 314 315 317 318 318 320 320 321 322 322 322 323 324 325 325 325 325 325 324 323 321 319 319 321 321 316 312 310 309 306 302 297 295 293 292 293 295 295 295 295
309 312 314 316 317 318 319 320 321 321 323 324 325 325 326 326 325 324 324 324 324 323 320 318 318 320 320 315 312 310 309 307 302 298 296 294 294 296 296 296 296 295
311 312 314 316 317 318 319 320 321 323 325 326 325 325 325 324 324 323 322 322 323 322 319 316 317 320 319 315 312 310 309 307 303 299 297 295 297 299 299 299 299 298
310 311 313 315 316 318 319 320 321 322 324 326 325 324 324 324 323 322 321 321 320 319 317 315 315 318 318 313 311 309 308 306 303 300 299 298 299 301 301 301 300 300
310 311 313 315 316 318 317 318 320 321 323 325 325 323 322 322 322 320 319 319 317 316 316 314 312 315 316 312 308 308 306 304 302 300 299 299 300 300 300 300 300 300
311 312 313 314 314 315 315 315 317 320 322 323 323 322 320 320 320 319 317 317 317 316 316 314 312 315 318 313 307 306 305 303 301 299 297 298 299 299 299 298 297 296
310 311 312 313 312 312 313 314 317 319 321 322 322 321 320 318 319 317 314 314 317 317 317 315 314 316 319 314 306 303 304 302 300 297 295 295 296 294 293 292 292 292